Regional Weather Roundup
Issued by NWS

Current Version | Previous Version | Text Only | Print | Product List | Glossary On
Versions: 1 2 3 4 5 6 7 8 9 10 11 12 13 14 15 16 17 18 19 20 21 22 23 24 25 26 27 28 29 30 31 32 33 34 35 36 37 38 39 40 41 42 43 44 45 46 47 48 49 50
000
ASUS45 KABQ 011810
RWRNM
WEATHER ROUNDUP FOR NEW MEXICO
NATIONAL WEATHER SERVICE ALBUQUERQUE NM
1100 AM MST SUN FEB 01 2015

NOTE: "FAIR" MEANS FEW OR NO CLOUDS BELOW 12,000 FEET AGL WITH NO
       SIGNIFICANT WEATHER OR OBSTRUCTIONS TO VISION.

      THIS PRODUCT IS RELEASED AS TWO VERSIONS.  ONE VERSION NEAR
      THE TOP OF THE HOUR CONTAINING PRELIMINARY DATA FROM ALBUQUERQUE
      AND OTHER STATIONS.  A FINAL VERSION WITH ADDITIONAL DATA IS
      ISSUED ABOUT 10 MINUTES AFTER THE HOUR.

NMZ501-503-504-510>518-011900-
NORTHWEST PLATEAU/NORTHCENTRAL MOUNTAINS

CITY           SKY/WX    TMP DP  RH WIND       PRES   REMARKS
FARMINGTON     MOSUNNY   32  30  92 CALM      30.16R
6HR MIN TEMP:  29; 6HR MAX TEMP:  32;

LOS ALAMOS     SUNNY     33  31  92 CALM      30.14R
SANTA FE       SUNNY     33  30  88 N5        30.13R WCI  29
6HR MIN TEMP:  21; 6HR MAX TEMP:  33;

TAOS           SUNNY     25  21  86 CALM      30.14R
ANGEL FIRE     FAIR      32  12  42 W15         N/A  WCI  22

$$
NMZ402-403-502-505>509-011900-
WESTCENTRAL MOUNTAINS/SOUTHWEST MOUNTAINS

CITY           SKY/WX    TMP DP  RH WIND       PRES   REMARKS
GALLUP         SUNNY     34  28  79 CALM      30.20R
6HR MIN TEMP:  24; 6HR MAX TEMP:  34;

GRANTS         SUNNY     38  25  58 NW5       30.20S WCI  35
SILVER CITY    SUNNY     50  37  62 SE5       30.14R

$$
NMZ407-409-411-412-011900-
SOUTHERN DESERTS

CITY           SKY/WX    TMP DP  RH WIND       PRES   REMARKS
LORDSBURG      MOCLDY    48  43  81 W9        30.14R
DEMING         CLOUDY    44  42  93 E6        30.13R
6HR MIN TEMP:  35; 6HR MAX TEMP:  44;

LAS CRUCES     SUNNY     50  43  76 NE5       30.12S
HOLLOMAN AFB   SUNNY     53  38  56 N13       30.09R
ALAMOGORDO     SUNNY     54  37  54 N13       30.10S
T OR C         SUNNY     48  35  60 NE7       30.13R
6HR MIN TEMP:  35; 6HR MAX TEMP:  49;


$$
NMZ519>523-011900-
CENTRAL VALLEYS/CENTRAL HIGHLANDS

CITY           SKY/WX    TMP DP  RH WIND       PRES   REMARKS
ALBUQUERQUE    MOSUNNY   42  30  62 N12       30.16R
6HR MIN TEMP:  32; 6HR MAX TEMP:  43;

DOUBLE EAGLE   MOSUNNY   37  28  70 NW9       30.16R WCI  31
MORIARTY ARPT  FAIR      40  31  70 N7        30.14S
6HR MIN TEMP:  27; 6HR MAX TEMP:  40;

CLINES CORNERS CLOUDY    36  31  82 CALM      30.10R
6HR MIN TEMP:  28; 6HR MAX TEMP:  36;

BELEN          FAIR      44  31  62 N7        30.16R
6HR MIN TEMP:  30; 6HR MAX TEMP:  44;

SOCORRO        FAIR      47  35  62 N14G21    30.15R
6HR MIN TEMP:  34; 6HR MAX TEMP:  47;


$$
NMZ524>526-539-540-011900-
SOUTHCENTRAL MOUNTAINS

CITY           SKY/WX    TMP DP  RH WIND       PRES   REMARKS
RUIDOSO        MOSUNNY   36  32  87 SE17      30.15R WCI  25

$$
NMZ527>531-011900-
NORTHEAST HIGHLANDS/NORTHEAST PLAINS

CITY           SKY/WX    TMP DP  RH WIND       PRES   REMARKS
LAS VEGAS      CLOUDY    31  29  92 SE9       30.11S WCI  23
6HR MIN TEMP:  22; 6HR MAX TEMP:  32;

RATON          MOSUNNY   32  22  66 SE5       30.09F WCI  27
6HR MIN TEMP:  25; 6HR MAX TEMP:  33;

CLAYTON        SUNNY     35  21  56 N24G32    30.13S WCI  23
6HR MIN TEMP:  30; 6HR MAX TEMP:  36;


$$
NMZ532>537-011900-
EASTCENTRAL PLAINS

CITY           SKY/WX    TMP DP  RH WIND       PRES   REMARKS
TUCUMCARI      PTSUNNY   40  29  64 NE9       30.16R WCI  34
6HR MIN TEMP:  29; 6HR MAX TEMP:  41;

CANNON AFB     MOSUNNY   41 N/A N/A NE17G31   30.13S
6HR MIN TEMP:  34; 6HR MAX TEMP:  40; 6HR PCP:  0.01;

CLOVIS AIRPORT MOSUNNY   41  28  60 N25G32    30.15R

$$
NMZ028-029-538-011900-
SOUTHEAST PLAINS

CITY           SKY/WX    TMP DP  RH WIND       PRES   REMARKS
ROSWELL        CLOUDY    45  37  73 N10       30.16R
6HR MIN TEMP:  37; 6HR MAX TEMP:  45;

ARTESIA        PTSUNNY   46  43  87 N9G18     30.17R
CARLSBAD       CLOUDY    48  41  76 NW13      30.14R
6HR MIN TEMP:  40; 6HR MAX TEMP:  48; 6HR PCP: TRACE;

HOBBS          PTSUNNY   45  41  87 N17       30.13R


$$


USA.gov is the U.S. government's official web portal to all federal, state and local government web resources and services.